Iowa City, IA

9:47 AM CST on December 13, 2017 (GMT -0600)
Iowa City Municipal

Weather History for KIOW - May, 2013

Change the Weather History Date:

Wednesday, May 1, 2013

  Actual Average Record
Temperature  
Mean Temperature 64 °F 56 °F  
Max Temperature 80 °F 67 °F 88 °F (1952)
Min Temperature 47 °F 45 °F 29 °F (1950)
Degree Days  
Heating Degree Days 1 9  
Month to date heating degree days 1 9  
Since 1 July heating degree days 6264 6202  
Cooling Degree Days 0 0  
Month to date cooling degree days 0 0  
Year to date cooling degree days 10 4  
Growing Degree Days 14 (Base 50)    
Moisture  
Dew Point 49 °F    
Average Humidity 63    
Maximum Humidity 86    
Minimum Humidity 39    
Precipitation  
Precipitation 0.00 in 0.15 in 1.29 in (1973)
Month to date precipitation 0.00 0.15  
Year to date precipitation 13.33 8.03  
Sea Level Pressure  
Sea Level Pressure 30.04 in    
Wind  
Wind Speed 10 mph (NNW)    
Max Wind Speed 29 mph    
Max Gust Speed 37 mph    
Visibility 10 miles    
Events      
T = Trace of Precipitation, MM = Missing Value Source: NWS Daily Summary

Daily Weather History Graph

Daily Weather History Graph

Search for Another Location

Airport or City:

Trip Planner

Search our weather history database for the weather conditions in past years. The results will help you decide how hot, cold, wet, or windy it might be!

Date:

Astronomy

May. 01, 2013 Rise Set
Actual Time 6:02 AM CDT 8:04 PM CDT
Civil Twilight 5:32 AM CDT 8:34 PM CDT
Nautical Twilight 4:55 AM CDT 9:12 PM CDT
Astronomical Twilight 4:15 AM CDT 9:52 PM CDT
Moon 1:14 AM CDT (5/1) 11:41 AM CDT (5/1)
Length of Visible Light 15h 02m
Length of Day
14h 02m
Waning Gibbous, 59% of the Moon is Illuminated
May 1
Waning Gibbous
May 2
Last Quarter
May 9
New
May 17
First Quarter
May 24
Full

Hourly Weather History & Observations

Time (CDT) Temp. Dew Point Humidity Pressure Visibility Wind Dir Wind Speed Gust Speed Precip Events Conditions
12:52 AM 61.0 °F 52.0 °F 72% 29.86 in 10.0 mi SE 6.9 mph - N/A   Clear
1:52 AM 62.1 °F 52.0 °F 70% 29.88 in 10.0 mi WNW 5.8 mph - N/A   Clear
2:52 AM 63.0 °F 52.0 °F 67% 29.90 in 10.0 mi SW 4.6 mph - N/A   Clear
3:52 AM 59.0 °F 52.0 °F 78% 29.92 in 10.0 mi WSW 4.6 mph - N/A   Clear
4:52 AM 55.9 °F 51.1 °F 84% 29.95 in 10.0 mi Calm Calm - N/A   Scattered Clouds
5:52 AM 57.0 °F 48.9 °F 74% 29.98 in 10.0 mi NW 8.1 mph - N/A   Mostly Cloudy
6:52 AM 57.0 °F 48.0 °F 72% 30.01 in 10.0 mi NNW 5.8 mph - N/A   Mostly Cloudy
7:52 AM 59.0 °F 48.9 °F 69% 30.04 in 10.0 mi North 9.2 mph - N/A   Scattered Clouds
8:52 AM 62.1 °F 50.0 °F 65% 30.05 in 10.0 mi NNE 11.5 mph - N/A   Clear
9:52 AM 66.0 °F 51.1 °F 59% 30.05 in 10.0 mi NNE 10.4 mph 17.3 mph N/A   Clear
10:52 AM 69.1 °F 52.0 °F 54% 30.06 in 10.0 mi NE 6.9 mph - N/A   Clear
11:52 AM 73.0 °F 52.0 °F 48% 30.06 in 10.0 mi Variable 4.6 mph - N/A   Clear
12:52 PM 75.0 °F 52.0 °F 44% 30.06 in 10.0 mi Calm Calm - N/A   Clear
1:52 PM 77.0 °F 53.1 °F 43% 30.06 in 10.0 mi Variable 4.6 mph - N/A   Scattered Clouds
2:52 PM 78.1 °F 53.1 °F 42% 30.05 in 10.0 mi South 4.6 mph - N/A   Clear
3:52 PM 79.0 °F 53.1 °F 40% 30.05 in 10.0 mi Variable 3.5 mph - N/A   Clear
4:52 PM 78.1 °F 51.1 °F 39% 30.05 in 10.0 mi NNW 16.1 mph 24.2 mph N/A   Partly Cloudy
5:52 PM 77.0 °F 51.1 °F 40% 30.05 in 10.0 mi WNW 21.9 mph 28.8 mph N/A   Scattered Clouds
6:52 PM 66.0 °F 46.9 °F 50% 30.08 in 10.0 mi NNW 19.6 mph 36.8 mph N/A   Partly Cloudy
7:52 PM 59.0 °F 44.1 °F 58% 30.12 in 10.0 mi North 25.3 mph 35.7 mph N/A   Clear
8:52 PM 52.0 °F 41.0 °F 66% 30.16 in 10.0 mi North 24.2 mph 35.7 mph N/A   Scattered Clouds
9:52 PM 50.0 °F 39.9 °F 68% 30.18 in 10.0 mi North 17.3 mph 26.5 mph N/A   Clear
10:52 PM 48.9 °F 39.9 °F 71% 30.18 in 10.0 mi North 16.1 mph 21.9 mph N/A   Clear
11:52 PM 48.9 °F 39.9 °F 71% 30.19 in 10.0 mi North 13.8 mph - N/A   Clear